| time (UTC) | temp C | wind direction | speed KPH | gust KPH | rain 1hr cm | rain 24hr cm | rain mn cm | humidity % | barometer mb |
| 20260503200042 | 16 | 197 | 8.0 | 24.1 | 0.00 | 0.00 | 0.00 | 40 | 1016.0 |
| 20260503194538 | 15 | 217 | 4.8 | 20.9 | 0.00 | 0.00 | 0.00 | 44 | 1016.3 |
| 20260503193052 | 15 | 126 | 11.3 | 25.7 | 0.00 | 0.00 | 0.00 | 41 | 1016.6 |
| 20260503191534 | 15 | 146 | 9.7 | 33.8 | 0.00 | 0.00 | 0.00 | 41 | 1016.8 |
| 20260503190059 | 16 | 251 | 11.3 | 25.7 | 0.00 | 0.00 | 0.00 | 42 | 1017.2 |
| 20260503184544 | 15 | 205 | 9.7 | 24.1 | 0.00 | 0.00 | 0.00 | 40 | 1017.2 |
| 20260503183055 | 15 | 207 | 8.0 | 20.9 | 0.00 | 0.00 | 0.00 | 41 | 1017.6 |
| 20260503181540 | 15 | 217 | 3.2 | 17.7 | 0.00 | 0.00 | 0.00 | 42 | 1017.7 |
| 20260503180051 | 15 | 279 | 6.4 | 19.3 | 0.00 | 0.00 | 0.00 | 43 | 1017.8 |
| 20260503174534 | 15 | 183 | 6.4 | 25.7 | 0.00 | 0.00 | 0.00 | 45 | 1017.9 |
| 20260503173041 | 15 | 200 | 4.8 | 22.5 | 0.00 | 0.00 | 0.00 | 47 | 1018.3 |
| 20260503171549 | 14 | 138 | 4.8 | 25.7 | 0.00 | 0.00 | 0.00 | 45 | 1018.5 |
| 20260503081544 | 1 | 0 | 0.0 | 0.0 | 0.00 | 0.00 | 0.00 | 88 | 1018.8 |
| 20260503071542 | 1 | 0 | 0.0 | 0.0 | 0.00 | 0.00 | 0.00 | 87 | 1018.7 |
| 20260503054542 | 1 | 0 | 0.0 | 0.0 | 0.00 | 0.00 | 0.00 | 85 | 1019.1 |
| 20260503053044 | 1 | 0 | 0.0 | 0.0 | 0.00 | 0.00 | 0.00 | 85 | 1019.2 |
| 20260503051539 | 1 | 0 | 0.0 | 0.0 | 0.00 | 0.00 | 0.00 | 84 | 1019.0 |
| 20260503050036 | 2 | 0 | 0.0 | 0.0 | 0.00 | 0.00 | 0.00 | 84 | 1019.0 |
| 20260503044536 | 2 | 0 | 0.0 | 0.0 | 0.00 | 0.00 | 0.00 | 84 | 1019.1 |
| 20260503043041 | 2 | 0 | 0.0 | 0.0 | 0.00 | 0.00 | 0.00 | 83 | 1019.1 |
| 20260503041541 | 2 | 0 | 0.0 | 0.0 | 0.00 | 0.00 | 0.00 | 82 | 1019.1 |
| 20260503040041 | 3 | 0 | 0.0 | 1.6 | 0.00 | 0.00 | 0.00 | 81 | 1019.2 |
| 20260503034537 | 3 | 0 | 0.0 | 1.6 | 0.00 | 0.00 | 0.00 | 79 | 1019.2 |
| 20260503033043 | 3 | 0 | 0.0 | 1.6 | 0.00 | 0.00 | 0.00 | 78 | 1019.3 |
| 20260503031535 | 3 | 0 | 0.0 | 0.0 | 0.00 | 0.00 | 0.00 | 75 | 1019.3 |
| 20260503030042 | 4 | 0 | 0.0 | 0.0 | 0.00 | 0.00 | 0.00 | 73 | 1019.2 |
| 20260503024541 | 4 | 0 | 0.0 | 0.0 | 0.00 | 0.00 | 0.00 | 71 | 1019.2 |
| 20260503023041 | 5 | 0 | 0.0 | 0.0 | 0.00 | 0.00 | 0.00 | 69 | 1019.2 |
| 20260503021538 | 5 | 0 | 0.0 | 1.6 | 0.00 | 0.00 | 0.00 | 67 | 1019.0 |
| 20260503020035 | 6 | 0 | 0.0 | 1.6 | 0.00 | 0.00 | 0.00 | 65 | 1018.8 |
| 20260503014607 | 6 | 0 | 0.0 | 1.6 | 0.00 | 0.00 | 0.00 | 62 | 1018.8 |
| 20260503013042 | 7 | 0 | 0.0 | 3.2 | 0.00 | 0.00 | 0.00 | 60 | 1018.6 |
| 20260503011547 | 7 | 350 | 0.0 | 4.8 | 0.00 | 0.00 | 0.00 | 58 | 1018.5 |
| 20260503010050 | 7 | 355 | 1.6 | 6.4 | 0.00 | 0.00 | 0.00 | 56 | 1018.3 |
| 20260503004605 | 8 | 0 | 1.6 | 9.7 | 0.00 | 0.00 | 0.00 | 55 | 1018.3 |
| 20260503003035 | 8 | 27 | 1.6 | 11.3 | 0.00 | 0.00 | 0.00 | 54 | 1018.2 |
| 20260503001535 | 9 | 346 | 4.8 | 14.5 | 0.00 | 0.00 | 0.00 | 51 | 1017.9 |
| 20260503000036 | 9 | 339 | 3.2 | 12.9 | 0.00 | 0.00 | 0.00 | 51 | 1017.8 |
| 20260502234544 | 10 | 352 | 4.8 | 14.5 | 0.00 | 0.00 | 0.00 | 50 | 1017.7 |
| 20260502233045 | 10 | 315 | 3.2 | 17.7 | 0.00 | 0.00 | 0.00 | 50 | 1017.6 |
| 20260502231540 | 10 | 317 | 3.2 | 16.1 | 0.00 | 0.00 | 0.00 | 47 | 1017.5 |
| 20260502230036 | 10 | 313 | 6.4 | 14.5 | 0.00 | 0.00 | 0.00 | 46 | 1017.4 |
| 20260502224544 | 11 | 319 | 1.6 | 14.5 | 0.00 | 0.00 | 0.00 | 48 | 1017.4 |
| 20260502223043 | 11 | 303 | 3.2 | 19.3 | 0.00 | 0.00 | 0.00 | 46 | 1017.4 |
| 20260502221542 | 11 | 319 | 6.4 | 20.9 | 0.00 | 0.00 | 0.00 | 46 | 1017.3 |
| 20260502220043 | 11 | 342 | 3.2 | 16.1 | 0.00 | 0.00 | 0.00 | 47 | 1017.3 |
| 20260502214534 | 11 | 340 | 6.4 | 19.3 | 0.00 | 0.00 | 0.00 | 45 | 1017.1 |
| 20260502213036 | 11 | 294 | 3.2 | 24.1 | 0.00 | 0.00 | 0.00 | 45 | 1017.1 |
| 20260502211553 | 12 | 326 | 3.2 | 12.9 | 0.00 | 0.00 | 0.00 | 44 | 1017.1 |
| 20260502210042 | 11 | 42 | 8.0 | 19.3 | 0.00 | 0.00 | 0.00 | 43 | 1017.0 |
| 20260502204541 | 12 | 38 | 6.4 | 17.7 | 0.00 | 0.00 | 0.00 | 43 | 1017.0 |
| 20260502203041 | 12 | 0 | 1.6 | 14.5 | 0.00 | 0.00 | 0.00 | 45 | 1017.0 |
| 20260502201540 | 13 | 308 | 4.8 | 14.5 | 0.00 | 0.00 | 0.00 | 43 | 1017.1 |